Date,TemperatureHighF,TemperatureAvgF,TemperatureLowF,DewpointHighF,DewpointAvgF,DewpointLowF,HumidityHigh,HumidityAvg,HumidityLow,PressureMaxIn,PressureMinIn,WindSpeedMaxMPH,WindSpeedAvgMPH,GustSpeedMaxMPH,PrecipitationSumIn
2013-3-1,29,24,17,18,16,11,78,71,61,30.36,30.24,4,1,13,0.00
2013-3-2,30,18,4,14,10,0,89,69,46,30.37,30.20,2,0,6,0.00
2013-3-3,34,24,13,16,12,8,82,62,46,30.18,30.01,3,1,7,0.00
2013-3-4,25,25,24,22,17,12,92,74,56,30.06,29.98,3,2,13,0.00
2013-3-5,28,25,21,25,22,17,94,90,82,30.31,30.01,2,1,7,0.00
2013-3-6,27,20,9,18,15,3,92,80,69,30.43,30.31,1,0,5,0.00
2013-3-7,33,18,1,22,11,-4,94,73,61,30.41,30.30,3,1,7,0.00
2013-3-8,39,29,18,31,24,14,89,80,71,30.34,30.12,3,2,8,0.01
2013-3-9,36,34,32,35,33,29,100,96,80,30.11,29.73,3,1,57,0.31
2013-3-10,34,33,30,34,30,26,99,88,82,29.97,29.80,1,1,52,0.12
2013-3-11,30,28,25,26,23,19,86,82,73,29.88,29.76,1,0,7,0.00
2013-3-12,28,24,21,19,16,12,83,70,50,30.18,29.85,2,0,9,0.00
2013-3-13,32,23,13,17,13,9,86,67,45,30.38,30.19,1,0,8,0.00
2013-3-14,39,29,24,30,22,-100,93,81,69,30.27,30.03,1,0,6,0.13
2013-3-15,34,29,24,31,19,-100,96,84,80,30.03,29.86,2,0,9,0.01
2013-3-16,25,20,14,21,13,4,92,74,54,30.24,29.92,1,0,7,0.00
2013-3-17,27,16,3,16,6,-3,76,65,55,30.30,29.92,3,1,10,0.00
2013-3-18,28,22,13,27,17,7,96,81,70,29.92,29.63,4,2,13,0.00
2013-3-19,22,14,6,8,2,-3,75,62,44,30.20,29.82,4,2,12,0.00
2013-3-20,21,11,5,5,-1,-5,64,57,48,30.22,30.11,2,2,13,0.00
2013-3-21,77,25,12,57,13,5,72,60,50,30.10,30.05,1,0,5,0.00
2013-3-22,35,16,-80,20,3,-100,86,63,48,30.12,30.05,1,0,5,0.00
2013-3-23,37,28,13,23,18,8,84,67,50,30.17,30.09,1,0,7,0.07
2013-3-24,32,29,27,26,22,20,83,76,69,30.12,30.00,2,0,12,0.01
2013-3-25,37,29,21,22,19,14,78,66,51,30.23,30.06,1,0,7,0.05
2013-3-26,94,22,-150,78,-4,-100,80,55,55,30.31,30.23,1,0,4,0.11
2013-3-27,43,34,23,26,22,18,81,62,41,30.35,30.30,2,0,8,0.13
2013-3-28,44,32,19,27,22,15,91,69,47,30.36,30.28,2,0,5,0.08
2013-3-29,47,36,25,36,29,21,87,76,62,30.31,30.11,3,1,7,0.05
2013-3-30,52,42,37,43,38,33,100,85,66,30.10,29.86,4,1,8,0.40
2013-3-31,38,34,25,33,24,15,93,70,44,30.09,29.81,2,1,10,0.00